SCP
-0 -0 -0 -0 -0 -0 -0 -0 -0 -0 -0 -0 -0 -0 -0 -0 -0 -0 -0 -0 -0 -0 -0 -0 -0 -0 0 0 -0 -0 -0 0 -0 -0 -0 -0 -0 -0 -0 -0 0 0 0 -0 0 0 0
0 -0 -0 -0 -0 -0 -0 -0 -0 -0 -0 -0 -0 -0 -0 -0 -0 -0 -0 -0 -0 -0 -0 -0 -0 -0 0 -0 -0 -0 -0 -0 -0 -0 -0 -0 -0 -0 -0 -0 -0 0 0 0 0 0 0
-0 -0 -0 -0 -0 -0 -0 -0 -0 -0 -0 -0 -0 -0 -0 -0 -0 -0 -0 -0 -0 -0 -0 -0 -0 0 -0 0 0 -0 -0 -0 -0 -0 -0 -0 -0 -0 -0 -0 0 -0 -0 -0 0 0 0
-0 -0 -0 -0 -0 -0 -0 -0 -0 -0 -0 -0 -0 -0 -0 -0 -0 -0 -0 -0 -0 -0 -0 -0 0 0 0 -0 -0 0 -0 -0 -0 -0 -0 -0 -0 0 -0 -0 -0 -0 -0 0 -0 -0 0
-0 -0 -0 -0 -0 -0 -0 -0 -0 -0 -0 -0 -0 -0 -0 -0 -0 -0 -0 -0 -0 0 -0 0 0 0 -0 -0 -0 0 -0 -0 -0 -0 0 0 0 -0 -0 -0 -0 0 0 0 0 -0 0
-0 -0 -0 -0 -0 -0 -0 -0 -0 -0 -0 -0 -0 -0 -0 -0 -0 -0 -0 -0 0 0 0 0 -0 0 0 -0 -0 -0 0 0 -0 -0 -0 -0 -0 -0 -0 -0 -0 0 -0 -0 0 0 0
-0 -0 -0 -0 -0 -0 -0 -0 -0 -0 -0 -0 -0 -0 -0 -0 -0 0 0 -0 0 0 0 0 0 0 0 -0 0 -0 -0 0 -0 -0 -0 -0 -0 -0 -0 -0 -0 0 0 0 0 0 0
-0 -0 -0 -0 -0 -0 -0 -0 -0 -0 -0 -0 -0 -0 -0 0 0 0 0 0 0 0 0 -0 -0 -0 -0 0 0 -0 -0 -0 -0 -0 -0 -0 -0 -0 -0 -0 -0 0 -0 -0 0 0 0
-0 -0 -0 -0 -0 -0 -0 -0 -0 -0 -0 -0 -0 -0 0 0 0 0 0 -0 0 0 0 -0 -0 -0 -0 0 0 0 -0 -0 -0 -0 -0 -0 -0 -0 -0 -0 -0 0 -0 -0 0 0 0
-0 -0 -0 -0 -0 -0 -0 -0 -0 -0 -0 -0 -0 -0 -0 -0 0 0 0 0 -0 -0 0 0 0 0 -0 0 -0 0 -0 -0 -0 -0 -0 -0 -0 0 0 -0 -0 -0 -0 0 0 0 -0
-0 -0 -0 -0 -0 -0 -0 -0 -0 -0 -0 -0 -0 -0 -0 0 0 0 0 0 0 -0 0 0 0 0 0 0 0 0 -0 -0 0 -0 0 0 0 -0 -0 0 0 0 0 0 0 0 -0
-0 -0 -0 -0 -0 -0 -0 -0 -0 -0 -0 -0 -0 -0 0 0 0 -0 0 -0 -0 0 0 0 0 0 0 -0 0 0 0 0 0 -0 -0 0 -0 -0 0 0 0 -0 -0 0 -0 -0 -0
-0 -0 -0 -0 -0 -0 -0 -0 -0 -0 -0 -0 -0 -0 0 0 0 0 -0 -0 0 -0 0 0 0 0 0 0 0 -0 0 0 0 0 0 -0 -0 0 0 0 -0 0 -0 0 -0 0 0
-0 -0 -0 -0 -0 -0 -0 -0 -0 -0 -0 -0 -0 -0 -0 0 0 -0 -0 0 0 0 0 0 0 -0 0 0 0 -0 0 0 0 0 -0 -0 0 -0 0 0 -0 0 -0 -0 -0 0 -0
-0 -0 -0 -0 -0 -0 -0 -0 -0 -0 -0 -0 -0 0 0 0 0 -0 -0 0 -0 -0 0 0 0 0 -0 -0 -0 0 -0 0 0 -0 0 0 0 -0 0 0 0 -0 -0 -0 -0 -0 -0
-0 -0 -0 -0 -0 -0 -0 -0 -0 -0 -0 -0 -0 0 0 0 0 -0 0 -0 -0 0 0 0 0 -0 -0 0 0 0 -0 -0 0 0 0 0 0 0 0 0 0 -0 -0 -0 0 0 0
-0 -0 -0 -0 -0 -0 -0 -0 -0 -0 -0 -0 -0 -0 0 0 0 0 -0 0 0 0 0 0 0 0 0 0 0 -0 0 0 0 0 0 0 0 0 -0 0 0 0 -0 0 0 0 0
0 -0 -0 -0 -0 -0 -0 -0 -0 -0 -0 -0 -0 0 0 0 0 0 -0 0 0 0 0 0 0 0 0 0 0 0 0 0 0 0 0 0 0 0 0 -0 0 0 0 0 -0 0 0
0 0 -0 -0 -0 -0 -0 -0 -0 -0 -0 0 0 0 0 -0 0 -0 0 0 0 0 0 0 0 0 0 0 0 0 0 0 0 0 0 0 0 0 0 0 0 0 0 0 0 0 0
-0 -0 0 -0 -0 -0 -0 -0 -0 -0 0 0 0 0 0 0 0 -0 0 0 0 0 0 0 0 0 0 0 0 0 0 0 0 0 0 0 0 0 0 0 0 0 0 0 0 0 0
-0 -0 -0 0 -0 -0 -0 -0 -0 -0 -0 0 0 0 0 0 0 0 0 0 0 0 0 0 0 0 0 0 0 0 0 0 0 0 0 0 0 0 0 0 0 0 0 -0 0 0 0
-0 -0 -0 -0 0 0 0 -0 -0 -0 -0 0 0 0 0 0 0 0 0 0 0 0 0 0 0 0 0 0 0 0 0 0 0 0 0 0 0 0 0 0 0 0 0 0 0 0 0
0 0 0 0 0 0 -0 -0 -0 -0 -0 0 0 0 0 0 0 0 0 0 0 0 0 0 0 0 0 0 0 0 0 0 0 0 0 1 1 1 0 0 0 0 0 0 -0 0 0
0 0 0 0 0 0 0 0 0 0 0 0 0 0 0 0 0 0 0 0 0 0 0 0 0 0 0 0 0 0 0 0 0 0 0 0 0 0 0 1 1 0 0 0 0 0 0
0 0 0 0 0 0 0 0 0 0 0 0 0 0 0 0 0 0 0 0 0 0 0 0 0 0 0 0 0 0 0 0 0 0 0 0 0 1 1 0 0 0 0 0 0 0 0
0 0 0 0 0 0 0 0 0 0 0 0 0 0 0 0 0 0 0 0 0 0 0 0 0 0 0 0 0 0 0 0 0 0 0 0 0 0 1 0 0 0 0 0 0 0 0
0 0 0 0 0 0 0 0 0 0 0 0 0 0 0 0 0 0 0 0 0 0 0 0 0 0 0 0 0 0 0 0 0 0 0 0 0 0 0 1 0 0 0 0 0 1 -0
0 0 0 0 0 0 0 0 0 0 0 0 0 0 0 0 0 0 0 0 0 0 0 0 0 0 0 0 0 0 0 0 0 -0 0 0 0 0 -0 0 -0 1 1 1 2 2 2
0 0 0 0 0 0 0 0 0 0 0 0 0 0 0 0 0 -0 0 0 0 0 0 0 0 0 0 0 0 0 0 0 0 0 0 0 1 0 0 0 1 1 0 1 -0 0 1
Wind_Speed_500mb
27 23 20 18 18 18 18 18 18 17 17 16 16 16 16 15 15 16 14 12 11 9 7 7 9 12 14 18 44 14 17 26 26 25 23 26 27 29 26 21 19 23 16 28 12 2 11
28 24 23 20 19 19 20 20 20 20 19 19 18 19 18 17 17 17 16 14 12 9 8 7 8 11 13 31 8 9 12 26 27 28 24 24 26 23 20 26 9 10 11 18 31 7 13
33 27 22 21 21 22 22 22 22 22 21 21 21 21 21 19 18 18 17 15 13 11 9 9 10 12 22 40 12 12 18 25 29 27 29 29 23 24 33 13 8 22 26 33 11 27 8
34 30 26 23 23 23 23 23 24 23 23 23 23 23 23 21 20 19 18 16 14 13 11 10 10 12 21 18 37 22 22 27 30 32 31 30 19 25 33 31 19 27 27 11 15 19 12
33 30 28 26 25 25 25 26 26 26 25 24 24 24 24 22 21 20 18 11 11 13 13 13 11 13 38 27 34 30 29 31 30 30 28 26 20 32 40 31 15 4 8 1 17 14 15
31 30 28 26 26 26 26 26 27 27 27 27 25 25 24 22 20 17 11 6 8 13 15 15 21 18 39 33 35 41 35 31 28 28 30 27 31 26 28 26 20 12 26 30 23 22 17
30 29 29 28 27 27 27 28 29 29 28 28 28 26 25 23 18 14 5 4 8 10 29 32 26 26 7 24 24 37 39 34 26 30 28 34 24 28 35 35 41 18 17 26 16 21 8
29 29 28 29 29 30 30 31 31 31 31 31 31 28 25 23 19 16 14 13 19 19 25 53 48 43 28 7 22 34 39 36 37 33 30 27 34 31 36 35 35 18 29 31 1 8 14
31 30 30 30 31 33 33 34 34 34 35 34 33 30 25 21 18 19 19 25 20 17 19 38 56 52 38 23 30 38 44 45 35 34 33 34 34 35 36 30 36 20 28 33 7 14 14
33 32 31 31 32 34 35 36 37 38 39 38 36 31 23 14 7 7 19 17 16 14 12 25 37 44 44 36 38 42 48 44 34 40 34 29 35 36 19 24 33 28 27 18 17 24 29
35 35 34 34 34 36 38 39 40 40 40 40 39 32 20 15 10 7 3 4 8 9 11 19 24 6 29 46 2 40 49 43 41 36 28 33 33 30 33 39 24 29 30 3 28 28 35
36 36 36 35 36 38 40 41 43 43 42 42 39 28 14 11 17 20 4 7 6 12 19 18 21 19 27 49 42 18 38 41 35 39 38 37 37 31 30 28 28 35 33 18 32 27 27
36 37 37 39 40 42 44 45 44 43 41 38 33 13 6 14 5 8 11 11 11 16 5 16 19 24 27 32 35 32 33 34 28 29 32 37 41 35 29 24 33 31 27 20 25 23 25
37 39 41 42 45 47 48 48 47 44 43 36 18 8 5 14 11 9 12 16 16 25 21 11 6 19 21 30 37 39 31 30 40 40 34 29 26 46 34 37 31 33 36 24 33 16 13
39 41 44 44 46 49 52 52 48 43 41 27 5 5 5 9 12 14 23 19 20 13 23 24 23 17 25 30 30 34 46 33 34 40 38 35 39 27 38 29 31 38 30 32 43 41 30
40 44 45 46 48 51 54 55 52 43 36 18 8 15 1 4 15 17 17 29 30 13 18 19 31 32 26 27 27 32 35 39 35 36 39 37 35 37 8 17 32 35 33 28 21 27 27
42 45 46 47 49 52 54 55 55 44 30 9 11 14 5 7 14 19 16 27 19 15 9 18 27 31 30 28 35 31 35 31 37 32 33 37 31 34 35 26 28 26 33 36 34 22 23
42 45 47 48 50 53 54 53 53 47 30 14 19 7 8 14 19 25 21 12 12 18 26 13 17 28 27 33 34 37 34 33 30 38 30 33 31 32 40 42 23 29 37 39 25 28 26
41 43 45 48 50 53 54 51 47 44 40 29 19 7 5 14 16 17 16 8 19 16 23 18 16 25 26 27 30 29 35 41 53 21 11 23 18 23 32 35 38 33 32 40 35 34 34
40 42 44 47 51 53 55 51 44 33 31 25 16 7 15 16 24 21 23 21 20 2 7 20 27 24 30 30 28 33 32 36 49 39 14 12 25 34 32 33 33 2 38 35 44 31 32
39 40 42 44 48 51 54 53 44 30 25 27 9 13 15 10 15 19 23 26 23 25 24 9 13 24 28 28 31 32 36 31 35 44 28 18 39 40 48 57 55 40 35 48 40 41 37
37 38 39 40 44 47 51 53 48 34 26 15 19 15 32 33 23 20 21 19 19 20 27 26 29 34 37 33 21 37 40 37 31 38 31 22 23 34 52 53 56 55 41 46 45 41 45
36 38 37 37 39 43 47 49 49 46 26 18 30 19 19 25 16 19 12 21 22 24 22 21 25 22 26 30 45 44 45 52 44 36 35 32 25 25 36 39 43 50 54 46 43 39 41
33 36 35 34 35 38 41 43 43 39 30 26 27 24 23 18 18 16 23 27 25 26 27 34 36 31 38 40 45 46 51 56 56 49 52 40 34 24 27 42 44 42 39 46 39 24 45
31 33 34 32 32 34 37 38 39 35 25 24 27 20 18 16 30 24 26 29 34 35 34 36 37 34 25 31 27 31 31 39 44 44 45 43 36 31 23 35 46 45 44 44 30 40 47
29 31 32 31 30 32 34 35 37 37 29 9 18 20 19 18 12 32 27 30 26 23 25 33 27 26 28 20 24 36 31 38 25 32 37 42 42 30 19 14 46 46 45 59 28 24 41
27 29 30 29 29 30 33 33 34 34 30 23 7 26 21 29 27 29 29 28 30 27 20 36 32 26 35 21 27 29 33 37 39 42 36 25 15 25 31 24 17 55 43 41 26 5 31
27 27 28 29 30 31 32 31 31 31 32 25 10 22 23 19 42 21 22 28 31 28 20 35 26 20 19 21 25 27 29 30 37 40 37 34 10 16 18 25 37 20 35 4 10 33 42
28 27 26 28 29 30 31 31 30 30 29 26 13 23 26 25 40 53 44 35 31 30 32 32 26 25 9 12 12 10 22 21 34 27 27 9 14 4 18 16 24 39 46 15 11 11 33
Wind_Direction_500mb
3 358 352 351 348 348 347 345 343 341 342 339 336 330 327 324 318 312 307 303 303 307 299 274 249 235 234 255 252 252 231 206 213 219 229 256 265 282 309 245 29 65 245 237 89 143 125
353 351 352 352 348 344 341 339 334 332 331 331 328 325 324 323 318 311 301 292 283 280 279 259 246 239 237 251 118 234 210 209 209 213 236 253 270 331 296 304 53 159 235 334 30 91 146
5 1 353 354 355 350 348 341 337 335 330 326 324 322 320 318 316 310 299 285 272 260 255 241 236 241 247 232 225 215 210 215 209 217 238 242 271 290 290 288 327 211 224 88 9 304 192
7 7 4 0 356 356 351 347 344 339 336 332 326 322 319 315 314 310 302 284 257 243 241 232 234 246 253 239 227 238 223 218 219 226 243 274 303 272 280 281 264 243 239 113 235 225 186
8 10 10 6 1 356 353 350 346 343 340 334 328 324 320 316 314 316 313 283 248 233 229 224 232 235 258 228 211 217 217 215 216 228 238 255 272 270 271 257 269 11 251 288 157 247 168
8 12 13 12 10 7 4 359 354 348 343 338 332 325 322 317 311 316 317 286 244 225 221 226 226 265 242 229 222 218 211 214 215 228 233 237 248 252 249 256 243 235 258 217 146 196 210
12 15 15 16 13 8 3 359 354 349 343 338 332 328 321 316 305 301 275 241 253 225 210 216 198 219 115 216 204 200 202 210 218 222 229 232 240 241 250 254 283 284 315 287 131 158 225
13 13 11 8 5 360 356 353 349 344 340 336 331 327 321 313 300 274 249 227 337 312 293 237 245 232 260 202 181 198 197 206 217 231 221 243 239 245 264 276 282 319 285 280 37 161 229
11 8 6 3 359 354 351 348 345 339 335 332 328 325 319 310 300 270 250 238 300 310 280 266 224 228 231 218 223 205 204 207 224 230 244 247 254 235 237 261 268 260 268 282 317 312 287
8 7 4 1 356 353 349 346 343 337 332 329 325 322 314 306 319 293 255 298 267 303 279 249 205 215 215 214 242 233 199 211 224 246 241 250 259 264 251 256 270 265 281 313 321 293 286
9 7 3 0 357 353 350 345 341 335 331 327 324 320 300 256 241 226 45 239 267 266 280 109 147 219 206 199 333 205 197 207 240 229 238 259 259 247 256 265 260 264 275 261 290 276 276
11 9 6 3 358 355 350 345 341 335 332 327 324 319 296 252 243 198 280 258 282 235 248 157 147 197 213 207 227 223 206 208 232 248 265 267 265 272 252 263 249 272 258 300 272 259 263
12 9 6 2 358 354 352 348 343 337 332 328 325 317 289 211 3 234 237 223 222 248 105 180 185 188 206 208 218 235 187 214 222 233 248 256 251 248 258 262 270 229 253 251 256 239 259
9 6 4 1 357 354 353 350 346 343 336 333 328 327 354 206 231 242 201 221 248 269 245 102 349 290 221 213 204 224 207 230 227 242 263 257 236 213 218 222 250 235 233 249 263 303 290
7 4 1 360 358 355 353 351 349 348 339 340 333 24 4 337 211 197 215 222 239 290 4 7 332 264 261 232 255 197 229 230 234 220 244 273 275 311 202 209 215 253 233 258 273 279 278
6 3 1 360 358 356 355 353 352 354 344 346 276 252 308 242 190 178 234 251 285 343 349 324 299 295 306 281 202 229 220 224 236 241 228 246 268 276 243 189 219 237 260 240 238 272 280
5 3 1 0 359 358 357 356 354 357 353 343 288 240 115 145 155 219 241 247 256 41 36 309 301 297 308 296 310 292 229 249 250 234 235 242 249 263 277 213 226 214 239 258 271 274 292
4 2 1 0 360 360 360 360 358 358 4 342 290 291 134 169 221 219 244 286 344 305 294 286 276 282 287 296 301 300 301 299 24 317 282 243 246 243 254 266 238 234 237 226 246 256 257
2 2 2 1 1 1 3 3 3 359 2 351 300 344 147 207 265 290 246 283 287 298 298 308 300 307 316 298 294 292 287 297 302 308 1 352 293 276 260 255 253 227 225 250 236 241 263
359 360 2 2 2 4 5 6 6 7 0 352 296 283 159 213 262 284 323 319 297 146 275 296 291 310 298 288 277 275 275 279 285 310 50 305 277 271 278 278 273 294 279 224 247 242 244
358 358 360 1 2 4 5 7 9 19 33 6 323 25 357 307 34 342 315 314 305 292 308 299 291 295 296 303 303 302 302 326 314 314 324 248 262 268 274 280 287 283 222 263 234 258 262
355 355 357 359 2 5 7 8 10 16 37 23 359 355 339 299 297 286 272 258 295 350 354 326 318 312 320 318 294 302 313 310 314 300 299 296 307 298 255 263 273 279 262 264 265 228 244
351 352 353 356 359 4 7 10 12 17 30 28 1 341 305 295 288 313 21 340 328 320 304 294 319 318 304 302 332 321 305 296 293 290 284 292 293 294 288 287 277 262 259 258 244 262 231
344 349 350 351 355 360 3 8 13 19 33 36 350 339 312 306 316 340 337 309 305 317 312 306 300 292 290 298 301 294 284 280 277 269 269 271 257 261 274 295 263 267 275 279 270 294 260
338 342 346 346 350 354 359 3 6 11 26 39 356 4 339 311 314 304 350 330 312 305 286 285 294 294 301 304 289 282 275 264 255 254 256 248 256 258 240 253 277 267 265 279 258 247 278
329 334 340 340 344 349 353 357 0 4 8 31 4 2 331 300 52 332 319 306 297 311 324 315 318 327 304 282 283 272 269 282 272 275 250 230 241 247 192 226 251 270 253 256 264 273 265
320 326 332 334 337 342 346 350 356 1 6 17 11 346 340 296 282 343 315 308 305 306 298 306 317 320 292 283 276 265 268 269 266 261 262 271 246 257 238 227 213 264 315 282 265 197 269
314 318 325 330 330 335 340 342 348 356 359 9 320 344 352 304 289 311 320 308 304 292 296 317 327 18 299 273 270 278 274 274 274 271 271 271 176 203 266 261 235 335 317 328 21 17 5
311 316 321 323 323 328 333 336 339 346 349 350 338 319 312 285 271 295 292 270 266 270 284 291 284 317 314 306 340 327 316 308 298 300 297 33 343 277 194 186 295 343 343 53 64 74 12
Wind_Speed_850mb
27 23 20 18 18 18 18 18 18 17 17 16 16 16 16 15 15 16 14 12 11 9 7 7 9 12 14 18 44 14 17 26 26 25 23 26 27 29 26 21 19 23 16 28 12 2 11
28 24 23 20 19 19 20 20 20 20 19 19 18 19 18 17 17 17 16 14 12 9 8 7 8 11 13 31 8 9 12 26 27 28 24 24 26 23 20 26 9 10 11 18 31 7 13
33 27 22 21 21 22 22 22 22 22 21 21 21 21 21 19 18 18 17 15 13 11 9 9 10 12 22 40 12 12 18 25 29 27 29 29 23 24 33 13 8 22 26 33 11 27 8
34 30 26 23 23 23 23 23 24 23 23 23 23 23 23 21 20 19 18 16 14 13 11 10 10 12 21 18 37 22 22 27 30 32 31 30 19 25 33 31 19 27 27 11 15 19 12
33 30 28 26 25 25 25 26 26 26 25 24 24 24 24 22 21 20 18 11 11 13 13 13 11 13 38 27 34 30 29 31 30 30 28 26 20 32 40 31 15 4 8 1 17 14 15
31 30 28 26 26 26 26 26 27 27 27 27 25 25 24 22 20 17 11 6 8 13 15 15 21 18 39 33 35 41 35 31 28 28 30 27 31 26 28 26 20 12 26 30 23 22 17
30 29 29 28 27 27 27 28 29 29 28 28 28 26 25 23 18 14 5 4 8 10 29 32 26 26 7 24 24 37 39 34 26 30 28 34 24 28 35 35 41 18 17 26 16 21 8
29 29 28 29 29 30 30 31 31 31 31 31 31 28 25 23 19 16 14 13 19 19 25 53 48 43 28 7 22 34 39 36 37 33 30 27 34 31 36 35 35 18 29 31 1 8 14
31 30 30 30 31 33 33 34 34 34 35 34 33 30 25 21 18 19 19 25 20 17 19 38 56 52 38 23 30 38 44 45 35 34 33 34 34 35 36 30 36 20 28 33 7 14 14
33 32 31 31 32 34 35 36 37 38 39 38 36 31 23 14 7 7 19 17 16 14 12 25 37 44 44 36 38 42 48 44 34 40 34 29 35 36 19 24 33 28 27 18 17 24 29
35 35 34 34 34 36 38 39 40 40 40 40 39 32 20 15 10 7 3 4 8 9 11 19 24 6 29 46 2 40 49 43 41 36 28 33 33 30 33 39 24 29 30 3 28 28 35
36 36 36 35 36 38 40 41 43 43 42 42 39 28 14 11 17 20 4 7 6 12 19 18 21 19 27 49 42 18 38 41 35 39 38 37 37 31 30 28 28 35 33 18 32 27 27
36 37 37 39 40 42 44 45 44 43 41 38 33 13 6 14 5 8 11 11 11 16 5 16 19 24 27 32 35 32 33 34 28 29 32 37 41 35 29 24 33 31 27 20 25 23 25
37 39 41 42 45 47 48 48 47 44 43 36 18 8 5 14 11 9 12 16 16 25 21 11 6 19 21 30 37 39 31 30 40 40 34 29 26 46 34 37 31 33 36 24 33 16 13
39 41 44 44 46 49 52 52 48 43 41 27 5 5 5 9 12 14 23 19 20 13 23 24 23 17 25 30 30 34 46 33 34 40 38 35 39 27 38 29 31 38 30 32 43 41 30
40 44 45 46 48 51 54 55 52 43 36 18 8 15 1 4 15 17 17 29 30 13 18 19 31 32 26 27 27 32 35 39 35 36 39 37 35 37 8 17 32 35 33 28 21 27 27
42 45 46 47 49 52 54 55 55 44 30 9 11 14 5 7 14 19 16 27 19 15 9 18 27 31 30 28 35 31 35 31 37 32 33 37 31 34 35 26 28 26 33 36 34 22 23
42 45 47 48 50 53 54 53 53 47 30 14 19 7 8 14 19 25 21 12 12 18 26 13 17 28 27 33 34 37 34 33 30 38 30 33 31 32 40 42 23 29 37 39 25 28 26
41 43 45 48 50 53 54 51 47 44 40 29 19 7 5 14 16 17 16 8 19 16 23 18 16 25 26 27 30 29 35 41 53 21 11 23 18 23 32 35 38 33 32 40 35 34 34
40 42 44 47 51 53 55 51 44 33 31 25 16 7 15 16 24 21 23 21 20 2 7 20 27 24 30 30 28 33 32 36 49 39 14 12 25 34 32 33 33 2 38 35 44 31 32
39 40 42 44 48 51 54 53 44 30 25 27 9 13 15 10 15 19 23 26 23 25 24 9 13 24 28 28 31 32 36 31 35 44 28 18 39 40 48 57 55 40 35 48 40 41 37
37 38 39 40 44 47 51 53 48 34 26 15 19 15 32 33 23 20 21 19 19 20 27 26 29 34 37 33 21 37 40 37 31 38 31 22 23 34 52 53 56 55 41 46 45 41 45
36 38 37 37 39 43 47 49 49 46 26 18 30 19 19 25 16 19 12 21 22 24 22 21 25 22 26 30 45 44 45 52 44 36 35 32 25 25 36 39 43 50 54 46 43 39 41
33 36 35 34 35 38 41 43 43 39 30 26 27 24 23 18 18 16 23 27 25 26 27 34 36 31 38 40 45 46 51 56 56 49 52 40 34 24 27 42 44 42 39 46 39 24 45
31 33 34 32 32 34 37 38 39 35 25 24 27 20 18 16 30 24 26 29 34 35 34 36 37 34 25 31 27 31 31 39 44 44 45 43 36 31 23 35 46 45 44 44 30 40 47
29 31 32 31 30 32 34 35 37 37 29 9 18 20 19 18 12 32 27 30 26 23 25 33 27 26 28 20 24 36 31 38 25 32 37 42 42 30 19 14 46 46 45 59 28 24 41
27 29 30 29 29 30 33 33 34 34 30 23 7 26 21 29 27 29 29 28 30 27 20 36 32 26 35 21 27 29 33 37 39 42 36 25 15 25 31 24 17 55 43 41 26 5 31
27 27 28 29 30 31 32 31 31 31 32 25 10 22 23 19 42 21 22 28 31 28 20 35 26 20 19 21 25 27 29 30 37 40 37 34 10 16 18 25 37 20 35 4 10 33 42
28 27 26 28 29 30 31 31 30 30 29 26 13 23 26 25 40 53 44 35 31 30 32 32 26 25 9 12 12 10 22 21 34 27 27 9 14 4 18 16 24 39 46 15 11 11 33
Wind_Direction_850mb
3 358 352 351 348 348 347 345 343 341 342 339 336 330 327 324 318 312 307 303 303 307 299 274 249 235 234 255 252 252 231 206 213 219 229 256 265 282 309 245 29 65 245 237 89 143 125
353 351 352 352 348 344 341 339 334 332 331 331 328 325 324 323 318 311 301 292 283 280 279 259 246 239 237 251 118 234 210 209 209 213 236 253 270 331 296 304 53 159 235 334 30 91 146
5 1 353 354 355 350 348 341 337 335 330 326 324 322 320 318 316 310 299 285 272 260 255 241 236 241 247 232 225 215 210 215 209 217 238 242 271 290 290 288 327 211 224 88 9 304 192
7 7 4 0 356 356 351 347 344 339 336 332 326 322 319 315 314 310 302 284 257 243 241 232 234 246 253 239 227 238 223 218 219 226 243 274 303 272 280 281 264 243 239 113 235 225 186
8 10 10 6 1 356 353 350 346 343 340 334 328 324 320 316 314 316 313 283 248 233 229 224 232 235 258 228 211 217 217 215 216 228 238 255 272 270 271 257 269 11 251 288 157 247 168
8 12 13 12 10 7 4 359 354 348 343 338 332 325 322 317 311 316 317 286 244 225 221 226 226 265 242 229 222 218 211 214 215 228 233 237 248 252 249 256 243 235 258 217 146 196 210
12 15 15 16 13 8 3 359 354 349 343 338 332 328 321 316 305 301 275 241 253 225 210 216 198 219 115 216 204 200 202 210 218 222 229 232 240 241 250 254 283 284 315 287 131 158 225
13 13 11 8 5 360 356 353 349 344 340 336 331 327 321 313 300 274 249 227 337 312 293 237 245 232 260 202 181 198 197 206 217 231 221 243 239 245 264 276 282 319 285 280 37 161 229
11 8 6 3 359 354 351 348 345 339 335 332 328 325 319 310 300 270 250 238 300 310 280 266 224 228 231 218 223 205 204 207 224 230 244 247 254 235 237 261 268 260 268 282 317 312 287
8 7 4 1 356 353 349 346 343 337 332 329 325 322 314 306 319 293 255 298 267 303 279 249 205 215 215 214 242 233 199 211 224 246 241 250 259 264 251 256 270 265 281 313 321 293 286
9 7 3 0 357 353 350 345 341 335 331 327 324 320 300 256 241 226 45 239 267 266 280 109 147 219 206 199 333 205 197 207 240 229 238 259 259 247 256 265 260 264 275 261 290 276 276
11 9 6 3 358 355 350 345 341 335 332 327 324 319 296 252 243 198 280 258 282 235 248 157 147 197 213 207 227 223 206 208 232 248 265 267 265 272 252 263 249 272 258 300 272 259 263
12 9 6 2 358 354 352 348 343 337 332 328 325 317 289 211 3 234 237 223 222 248 105 180 185 188 206 208 218 235 187 214 222 233 248 256 251 248 258 262 270 229 253 251 256 239 259
9 6 4 1 357 354 353 350 346 343 336 333 328 327 354 206 231 242 201 221 248 269 245 102 349 290 221 213 204 224 207 230 227 242 263 257 236 213 218 222 250 235 233 249 263 303 290
7 4 1 360 358 355 353 351 349 348 339 340 333 24 4 337 211 197 215 222 239 290 4 7 332 264 261 232 255 197 229 230 234 220 244 273 275 311 202 209 215 253 233 258 273 279 278
6 3 1 360 358 356 355 353 352 354 344 346 276 252 308 242 190 178 234 251 285 343 349 324 299 295 306 281 202 229 220 224 236 241 228 246 268 276 243 189 219 237 260 240 238 272 280
5 3 1 0 359 358 357 356 354 357 353 343 288 240 115 145 155 219 241 247 256 41 36 309 301 297 308 296 310 292 229 249 250 234 235 242 249 263 277 213 226 214 239 258 271 274 292
4 2 1 0 360 360 360 360 358 358 4 342 290 291 134 169 221 219 244 286 344 305 294 286 276 282 287 296 301 300 301 299 24 317 282 243 246 243 254 266 238 234 237 226 246 256 257
2 2 2 1 1 1 3 3 3 359 2 351 300 344 147 207 265 290 246 283 287 298 298 308 300 307 316 298 294 292 287 297 302 308 1 352 293 276 260 255 253 227 225 250 236 241 263
359 360 2 2 2 4 5 6 6 7 0 352 296 283 159 213 262 284 323 319 297 146 275 296 291 310 298 288 277 275 275 279 285 310 50 305 277 271 278 278 273 294 279 224 247 242 244
358 358 360 1 2 4 5 7 9 19 33 6 323 25 357 307 34 342 315 314 305 292 308 299 291 295 296 303 303 302 302 326 314 314 324 248 262 268 274 280 287 283 222 263 234 258 262
355 355 357 359 2 5 7 8 10 16 37 23 359 355 339 299 297 286 272 258 295 350 354 326 318 312 320 318 294 302 313 310 314 300 299 296 307 298 255 263 273 279 262 264 265 228 244
351 352 353 356 359 4 7 10 12 17 30 28 1 341 305 295 288 313 21 340 328 320 304 294 319 318 304 302 332 321 305 296 293 290 284 292 293 294 288 287 277 262 259 258 244 262 231
344 349 350 351 355 360 3 8 13 19 33 36 350 339 312 306 316 340 337 309 305 317 312 306 300 292 290 298 301 294 284 280 277 269 269 271 257 261 274 295 263 267 275 279 270 294 260
338 342 346 346 350 354 359 3 6 11 26 39 356 4 339 311 314 304 350 330 312 305 286 285 294 294 301 304 289 282 275 264 255 254 256 248 256 258 240 253 277 267 265 279 258 247 278
329 334 340 340 344 349 353 357 0 4 8 31 4 2 331 300 52 332 319 306 297 311 324 315 318 327 304 282 283 272 269 282 272 275 250 230 241 247 192 226 251 270 253 256 264 273 265
320 326 332 334 337 342 346 350 356 1 6 17 11 346 340 296 282 343 315 308 305 306 298 306 317 320 292 283 276 265 268 269 266 261 262 271 246 257 238 227 213 264 315 282 265 197 269
314 318 325 330 330 335 340 342 348 356 359 9 320 344 352 304 289 311 320 308 304 292 296 317 327 18 299 273 270 278 274 274 274 271 271 271 176 203 266 261 235 335 317 328 21 17 5
311 316 321 323 323 328 333 336 339 346 349 350 338 319 312 285 271 295 292 270 266 270 284 291 284 317 314 306 340 327 316 308 298 300 297 33 343 277 194 186 295 343 343 53 64 74 12